Content
SEND FEEDBACK

Daily
Averages
Monthly
Summary
French Polynesia

HITIAA, FRENCH POLYNESIA


Home > Oceania > French Polynesia
Elevation: 7 feet     Latitude: 17 33S     Longitude: 149 37W

WEATHER
 
SELECT A DAY
Number of Records: 215,830;   Date Range: 6/30/96 - 11/20/14
 
SHARE

PRINT THIS DATA

[ ← Previous Day ]
WEATHER ALMANAC - FEBRUARY 1, 2013
[ Next Day → ]
[ °C ]   °F
Weather ElementAverageHighLow
Temperature81 °F84.2 °F (11:30 am)77 °F (12:30 am)
Dewpoint76.4 °F78.8 °F (12:00 pm)75 °F (2:00 am)
Humidity85.6 %94 % (12:30 am)75 % (5:00 pm)
Barometer29.67 in29.73 in (11:00 pm)29.62 in (4:30 am)
Wind Speed15.9 mph35.8 mph (11:00 pm)
Wind Gust43.7 mph (12:30 am)
Weather ElementAverage
Visibility5.8 mi
Wind DirectionWNW (296.4 °)

Weather ElementTotal
Precipitation---
Cooling Degree Days15.6 (Base 65)
Growing Degree Days30.6 (Base 50)
Averaged from 55 records on February 1, 2013
WEATHER CONDITIONS BREAKOUT
WIND DIRECTION BREAKOUT
WEATHER BY HOUR - FEBRUARY 1, 2013
[ °C ]   °F
Local TimeTemperatureDewpointHumidityBarometerVisibilityWind DirectionWind SpeedGust SpeedPrecipitationEventsConditions
12:30 AM77.0 °F75.2 °F94 %29.68 in0.5 miNNW (330°)32.2 mph43.7 mphRainRain
1:00 AM77.0 °F75.2 °F94 %29.68 in5.0 miNNW (330°)19.6 mphRainLight Rain
1:30 AM78.8 °F75.2 °F89 %29.65 in6.2 miNNW (340°)18.4 mphRainLight Rain
2:00 AM78.0 °F75.0 °F87 %29.66 in2.0 miNorth (350°)23.0 mphRainLight Rain
2:00 AM78.8 °F75.2 °F89 %29.65 in1.9 miNorth (350°)23.0 mphRainLight Rain
2:30 AM78.8 °F75.2 °F89 %29.65 in6.2 miNorth (350°)18.4 mphMostly Cloudy
3:00 AM78.8 °F75.2 °F89 %29.65 in6.2 miNorth (350°)16.1 mphMostly Cloudy
3:30 AM78.8 °F75.2 °F89 %29.65 in6.2 miNNW (340°)18.4 mphMostly Cloudy
4:00 AM80.6 °F75.2 °F84 %29.65 in6.2 miNNW (340°)18.4 mphOvercast
4:30 AM80.6 °F77.0 °F89 %29.62 in6.2 miNorth (350°)12.7 mphMostly Cloudy
5:00 AM82.0 °F77.0 °F80 %29.65 in14.0 miNNW (340°)24.2 mphClear
5:00 AM82.4 °F77.0 °F84 %29.65 in6.2 miNNW (340°)24.2 mphOvercast
5:30 AM77.0 °F75.2 °F94 %29.65 in6.2 miNW (320°)28.8 mphRainLight Rain
6:00 AM78.8 °F75.2 °F89 %29.65 in6.2 miNorth (350°)16.1 mphMostly Cloudy
6:30 AM80.6 °F77.0 °F89 %29.68 in6.2 miNorth (350°)19.6 mphMostly Cloudy
7:00 AM78.8 °F75.2 °F89 %29.68 in5.0 miNW (320°)16.1 mphRainLight Rain
7:30 AM80.6 °F77.0 °F89 %29.68 in5.0 miNNW (330°)18.4 mphMostly Cloudy
8:00 AM81.0 °F77.0 °F83 %29.70 in3.0 miNNW (340°)17.3 mphRainLight Rain
8:00 AM80.6 °F77.0 °F89 %29.68 in3.1 miNNW (340°)17.3 mphRainLight Rain
8:30 AM78.8 °F77.0 °F94 %29.68 in3.1 miNNW (330°)24.2 mphRainLight Rain
9:00 AM78.8 °F77.0 °F94 %29.71 in3.1 miNNW (330°)19.6 mphRainLight Rain
9:30 AM80.6 °F77.0 °F89 %29.68 in6.2 miNorth (350°)18.4 mphMostly Cloudy
10:00 AM80.6 °F77.0 °F89 %29.68 in6.2 miNorth (350°)16.1 mphRainLight Rain
10:30 AM80.6 °F77.0 °F89 %29.68 in6.2 miNNW (340°)23.0 mphMostly Cloudy
11:00 AM82.0 °F78.0 °F83 %29.69 in6.0 miNNW (330°)18.4 mphRainLight Rain
11:00 AM82.4 °F77.0 °F84 %29.68 in6.2 miNNW (330°)18.4 mphMostly Cloudy
11:30 AM84.2 °F77.0 °F79 %29.68 in6.2 miNNW (330°)17.3 mphMostly Cloudy
12:00 PM82.4 °F78.8 °F89 %29.65 in6.2 miNNW (330°)13.8 mphRainLight Rain
12:30 PM84.2 °F77.0 °F79 %29.65 in6.2 miNNW (330°)17.3 mphMostly Cloudy
1:00 PM82.4 °F77.0 °F84 %29.65 in6.2 miNNW (330°)15.0 mphMostly Cloudy
1:30 PM82.4 °F77.0 °F84 %29.65 in6.2 miNW (310°)13.8 mphMostly Cloudy
2:00 PM82.0 °F76.0 °F78 %29.64 in6.0 miNNW (330°)17.3 mphMostly Cloudy
2:00 PM82.4 °F77.0 °F84 %29.62 in6.2 miNNW (330°)17.3 mphMostly Cloudy
2:30 PM84.2 °F77.0 °F79 %29.62 in6.2 miNNW (330°)16.1 mphMostly Cloudy
3:00 PM82.4 °F78.8 °F89 %29.62 in3.1 miNW (310°)13.8 mphRainLight Rain
3:30 PM82.4 °F77.0 °F84 %29.62 in6.2 miNW (310°)11.5 mphMostly Cloudy
4:00 PM82.4 °F77.0 °F84 %29.62 in6.2 miNW (310°)16.1 mphMostly Cloudy
4:30 PM84.2 °F77.0 °F79 %29.62 in6.2 miNW (320°)13.8 mphMostly Cloudy
5:00 PM84.0 °F77.0 °F75 %29.65 in9.0 miNNW (330°)12.7 mphPartly Cloudy
5:00 PM84.2 °F77.0 °F79 %29.62 in6.2 miNNW (330°)12.7 mphScattered Clouds
5:30 PM82.4 °F77.0 °F84 %29.65 in6.2 miNNW (340°)9.2 mphMostly Cloudy
6:00 PM82.4 °F77.0 °F84 %29.65 in6.2 miNNW (340°)6.9 mphMostly Cloudy
6:30 PM82.4 °F77.0 °F84 %29.68 in6.2 miNorth (350°)6.9 mphMostly Cloudy
7:00 PM82.4 °F77.0 °F84 %29.68 in6.2 miNE (50°)4.6 mphMostly Cloudy
7:30 PM82.4 °F77.0 °F84 %29.68 in6.2 miNNE (20°)4.6 mphMostly Cloudy
8:00 PM82.0 °F76.0 °F77 %29.70 in6.0 miENE (60°)11.2 mphMostly Cloudy
8:00 PM82.4 °F75.2 °F79 %29.68 in6.2 miENE (60°)5.8 mphMostly Cloudy
8:30 PM82.4 °F75.2 °F79 %29.71 in6.2 miEast (80°)6.9 mphMostly Cloudy
9:00 PM80.6 °F75.2 °F84 %29.71 in6.2 miEast (80°)5.8 mphMostly Cloudy
9:30 PM80.6 °F75.2 °F84 %29.71 in6.2 miSSE (160°)4.6 mphMostly Cloudy
10:00 PM80.6 °F75.2 °F84 %29.71 in6.2 miENE (60°)3.5 mphMostly Cloudy
10:30 PM80.6 °F75.2 °F84 %29.71 in6.2 miNNW (330°)10.4 mphMostly Cloudy
11:00 PM79.0 °F76.0 °F88 %29.73 in6.0 miNNW (340°)35.8 mphMostly Cloudy
11:00 PM78.8 °F77.0 °F94 %29.71 in6.2 miNNW (340°)18.4 mphMostly Cloudy
11:30 PM80.6 °F77.0 °F89 %29.71 in6.2 miNNW (340°)11.5 mphMostly Cloudy
Hourly data recorded from NTAA, located miles away from Hitiaa, French Polynesia







STORIES FROM OUR PARTNERS